Wind_Speed
5 5 3 2 2 2 1 1 1 2 3 3 2 2 2 3 3 3 3 3 3 3 4 4 4 4 5 6 6 6 6 5 5 5 4 4 3 4 4 4 4 4 4
6 6 5 4 3 2 2 1 1 2 3 3 3 3 2 2 2 2 3 3 4 4 4 4 4 4 4 5 6 6 5 6 6 5 4 4 4 4 4 4 4 4 4
8 7 5 5 3 2 1 1 1 2 3 3 3 3 3 2 3 3 3 3 4 4 4 4 4 4 4 5 5 5 5 5 6 5 5 4 4 4 4 4 4 4 4
10 8 6 5 4 3 1 1 1 1 2 2 3 3 2 2 3 3 3 3 4 4 4 4 4 4 5 5 5 5 5 5 6 6 5 5 4 4 5 4 4 4 4
10 9 7 5 4 3 2 1 1 1 2 2 2 2 2 2 2 3 3 4 4 4 5 5 4 4 4 5 5 5 5 6 7 7 6 6 5 5 5 5 4 4 4
11 9 8 7 5 4 3 2 2 2 2 2 1 2 2 2 3 3 3 4 5 5 5 4 5 5 5 5 5 6 6 7 7 7 7 6 6 6 6 6 5 5 5
11 10 9 8 6 5 4 3 3 3 2 1 2 2 2 1 2 2 3 4 5 5 5 5 5 6 6 6 6 7 7 7 7 7 7 7 7 6 6 6 5 5 5
11 11 10 9 8 6 6 5 4 3 3 2 2 1 1 1 2 2 3 5 5 5 5 5 5 6 6 6 6 7 8 8 7 8 8 8 7 7 6 6 5 5 5
11 11 11 10 9 7 6 6 5 4 4 3 3 2 1 1 2 3 4 5 5 5 5 6 6 6 6 6 7 7 7 7 7 7 8 8 7 7 6 7 6 6 6
12 12 12 11 9 8 7 6 5 4 4 4 3 2 1 1 2 3 4 5 5 5 5 6 6 6 6 6 6 7 7 8 7 7 6 6 6 6 6 7 8 7 7
12 12 12 12 10 8 7 7 6 6 5 5 4 3 2 2 2 3 3 3 4 5 5 5 6 6 6 7 7 7 8 8 8 7 7 7 6 7 7 8 8 8 8
12 13 12 12 11 9 8 7 7 6 6 5 5 4 3 2 2 2 2 3 4 4 5 5 5 6 7 7 8 8 8 8 7 7 7 7 7 7 7 8 8 8 8
12 13 13 13 12 10 9 8 7 6 6 6 6 5 4 3 2 2 1 2 3 4 5 5 5 5 7 8 8 9 8 8 7 7 7 7 7 7 7 8 8 8 8
11 12 12 12 12 11 10 9 8 7 7 7 6 6 5 4 3 2 1 2 3 4 5 5 5 6 6 8 8 8 8 8 7 7 7 8 7 7 7 8 8 8 8
12 12 12 12 11 11 10 9 9 9 9 8 7 6 5 4 4 4 2 3 3 3 3 4 5 6 6 8 8 8 8 8 8 7 8 8 8 7 7 7 8 8 8
11 12 12 11 11 11 10 9 9 9 9 8 7 7 6 5 4 4 4 4 4 3 3 4 4 5 6 6 7 7 7 7 7 8 8 8 8 8 7 7 8 8 8
11 11 11 11 11 10 10 9 9 9 9 8 8 7 7 7 6 5 5 4 3 3 4 3 3 3 3 3 4 5 5 6 6 7 7 7 8 8 8 8 8 8 8
10 10 10 9 10 10 9 9 8 8 8 9 8 8 8 8 8 8 6 5 4 4 4 3 2 2 2 2 3 4 5 5 6 7 6 7 8 8 8 8 8 8 8
10 10 9 8 8 9 9 9 8 8 8 9 9 9 8 8 8 7 7 6 5 5 5 4 4 3 2 2 1 2 3 5 6 6 7 7 7 7 7 8 8 8 8
9 9 9 8 8 8 8 8 7 8 8 8 8 9 8 8 7 8 7 7 6 6 5 5 4 3 2 2 1 1 2 4 5 6 7 7 7 7 7 7 7 7 8
8 8 8 8 8 8 8 8 8 8 8 8 8 8 8 8 7 8 7 7 7 7 6 5 5 4 3 3 3 3 4 4 5 6 6 6 7 8 8 8 8 7 8
8 7 7 8 8 8 7 7 8 8 8 8 9 9 9 9 9 8 8 8 8 8 7 6 5 5 4 4 4 4 5 5 4 5 6 6 7 8 8 8 8 8 8
7 8 8 8 8 8 8 8 8 8 8 9 9 9 10 10 10 10 9 9 8 8 7 6 5 5 5 5 5 5 4 4 5 5 5 6 6 6 7 7 8 8 8
7 7 7 8 8 8 8 8 8 9 9 9 9 9 10 10 10 10 10 9 9 8 8 8 7 7 7 6 6 6 5 5 6 6 6 6 7 7 7 8 9 9 9
7 7 7 8 9 9 8 8 9 10 10 10 10 10 10 10 10 10 10 10 10 10 9 9 9 9 8 8 8 7 7 7 8 9 8 8 9 9 9 10 9 10 9
7 8 8 8 9 9 9 9 10 10 11 11 11 11 11 11 11 11 10 10 10 10 10 10 10 10 10 10 9 9 8 8 9 10 10 10 11 11 11 12 11 11 11
Wind_Direction
23 37 41 45 59 82 91 141 199 216 216 204 200 214 232 221 217 203 197 201 198 191 179 185 186 181 179 177 181 191 193 195 198 198 199 204 209 221 217 219 216 225 225
42 52 55 66 70 73 80 110 159 200 210 210 205 209 217 211 195 188 197 202 206 203 193 194 199 198 194 194 198 203 206 207 203 199 201 209 218 214 209 208 220 226 225
51 54 49 46 48 45 63 149 177 204 219 213 201 202 208 206 201 207 208 209 209 204 205 211 214 211 209 206 203 208 210 207 203 206 207 217 222 215 208 213 219 220 225
45 46 43 38 33 29 14 205 198 207 209 199 197 200 206 214 222 221 217 215 209 211 218 221 215 216 217 218 218 217 215 209 215 222 216 218 222 218 215 226 224 222 226
41 38 35 32 28 32 36 43 107 159 175 182 193 200 214 234 236 232 231 222 217 225 231 223 217 228 231 227 228 227 223 217 220 219 213 216 222 227 226 226 222 227 229
40 35 34 35 44 54 69 79 83 106 137 159 185 201 218 235 229 229 240 233 230 236 237 232 231 234 235 234 234 231 226 222 219 215 215 222 225 229 232 230 234 239 238
41 41 41 43 47 60 81 84 88 86 91 125 169 191 209 236 241 237 236 232 230 238 245 245 245 246 241 241 237 232 231 226 224 220 223 230 230 226 230 233 242 244 245
43 44 44 48 51 65 79 87 86 88 84 86 110 169 216 241 245 246 234 228 235 246 250 245 248 249 245 242 241 237 236 233 231 231 232 230 228 227 229 230 235 243 249
44 43 46 51 57 69 79 84 91 87 77 80 81 94 159 229 248 247 247 247 248 248 245 244 249 252 245 245 246 246 242 233 237 238 232 228 224 227 231 233 240 245 251
44 45 48 54 56 60 73 75 80 78 69 69 63 56 22 276 269 259 256 253 248 243 249 251 252 252 246 245 246 251 247 239 240 236 229 223 226 232 235 234 241 245 247
43 44 45 50 55 59 64 68 73 69 62 54 44 38 10 317 287 272 259 253 253 253 257 256 254 252 248 242 245 250 249 249 251 240 233 231 235 238 241 238 241 242 240
44 41 43 49 55 62 65 68 71 65 58 46 36 28 15 350 336 290 258 260 257 267 265 259 264 258 252 246 245 245 247 247 247 239 236 234 237 239 242 242 240 240 240
44 42 45 49 53 59 63 65 66 59 50 39 31 22 23 21 19 333 252 255 259 273 274 261 253 257 246 243 240 238 245 242 239 238 235 233 239 240 241 243 242 242 240
47 48 49 50 54 56 59 56 50 42 40 37 33 20 20 34 36 8 287 295 293 292 284 264 256 256 250 243 238 242 242 238 238 240 237 237 239 236 237 239 239 240 236
44 46 47 49 54 52 50 51 46 43 41 37 35 28 24 38 35 14 345 330 325 308 282 279 276 272 262 247 242 241 241 241 241 243 240 238 237 233 231 235 236 232 227
42 43 46 50 52 50 47 48 44 42 41 34 30 28 24 19 10 352 342 323 329 328 317 309 306 282 266 251 244 242 246 245 242 239 237 234 231 229 233 236 233 231 228
35 39 41 44 46 46 45 43 40 37 36 32 26 28 25 16 9 355 353 342 334 340 330 322 322 290 275 258 249 246 243 241 235 235 231 233 231 229 233 233 232 228 232
31 34 37 40 40 37 36 34 33 31 26 23 22 25 21 16 15 12 10 4 3 1 346 342 340 320 322 281 255 239 234 230 236 233 230 233 234 231 233 234 231 227 230
27 29 31 33 35 31 30 28 29 27 21 18 18 19 16 12 14 10 11 5 354 345 349 1 12 2 355 342 317 242 241 241 241 242 241 233 233 232 234 231 224 229 230
22 21 25 26 25 23 21 21 22 19 16 13 11 12 14 7 4 3 2 354 348 345 353 354 351 347 345 346 329 261 262 257 251 247 238 232 230 232 233 234 231 236 235
19 16 21 18 17 18 18 18 16 10 6 5 5 6 5 359 354 351 352 349 345 341 342 348 347 338 317 291 279 271 264 264 264 248 241 238 233 235 237 236 242 244 246
12 11 10 6 6 7 8 7 5 2 359 358 356 356 356 355 351 343 342 342 341 338 330 326 333 332 321 323 313 290 273 262 244 246 252 252 243 241 239 243 243 246 248
2 358 356 355 353 354 354 354 355 355 351 348 346 342 341 343 343 342 341 336 332 332 333 331 326 323 323 316 313 303 283 262 259 263 265 266 261 254 250 248 254 258 256
353 352 348 347 344 343 343 344 344 346 345 341 338 336 335 336 334 336 337 332 328 324 321 324 321 316 315 310 302 298 284 283 283 280 274 266 263 261 264 263 263 266 267
344 348 345 340 337 336 338 338 337 337 338 336 332 331 331 330 327 328 329 329 328 322 315 315 318 311 307 303 298 293 285 284 281 277 272 266 264 264 268 267 265 265 263
339 335 335 334 336 334 333 332 331 332 333 331 329 328 327 323 320 322 326 326 324 322 319 315 313 312 309 305 300 295 288 284 279 274 271 268 264 265 267 265 264 265 263
Height
5871 5871 5871 5872 5873 5873 5874 5874 5875 5875 5875 5876 5876 5877 5876 5877 5878 5878 5879 5879 5879 5880 5880 5880 5880 5880 5880 5880 5881 5882 5883 5883 5884 5884 5885 5885 5885 5885 5886 5886 5886 5886 5886
5870 5871 5872 5872 5872 5873 5873 5874 5874 5874 5875 5875 5876 5876 5876 5877 5878 5878 5879 5879 5879 5879 5880 5880 5880 5880 5880 5881 5881 5882 5882 5883 5884 5884 5884 5885 5885 5885 5886 5886 5886 5886 5886
5871 5872 5872 5872 5872 5873 5873 5873 5873 5873 5874 5875 5875 5876 5876 5877 5878 5878 5878 5879 5879 5879 5880 5880 5880 5880 5881 5881 5881 5882 5882 5883 5883 5884 5884 5885 5885 5885 5885 5885 5886 5886 5885
5874 5873 5873 5873 5872 5872 5872 5872 5873 5873 5873 5874 5875 5876 5876 5877 5877 5877 5878 5878 5878 5879 5879 5879 5879 5880 5880 5880 5881 5881 5881 5882 5882 5883 5883 5884 5884 5885 5885 5885 5885 5885 5885
5876 5875 5874 5873 5872 5872 5872 5872 5872 5873 5873 5873 5874 5875 5876 5876 5876 5877 5877 5877 5878 5878 5879 5879 5879 5879 5879 5880 5880 5880 5881 5881 5882 5882 5883 5883 5883 5884 5884 5884 5884 5884 5884
5877 5876 5874 5872 5871 5871 5871 5871 5872 5872 5873 5873 5874 5875 5875 5876 5876 5876 5876 5877 5877 5878 5878 5878 5878 5878 5878 5879 5879 5879 5880 5880 5881 5881 5882 5882 5882 5883 5883 5883 5883 5883 5883
5878 5876 5874 5873 5871 5870 5870 5871 5872 5872 5873 5873 5873 5874 5874 5875 5875 5876 5876 5876 5876 5876 5876 5877 5877 5877 5877 5877 5877 5878 5878 5879 5879 5880 5881 5881 5881 5882 5882 5882 5882 5882 5882
5879 5878 5876 5874 5871 5870 5870 5872 5873 5873 5873 5873 5873 5873 5874 5874 5874 5875 5875 5875 5875 5875 5875 5875 5875 5875 5875 5875 5875 5876 5876 5877 5877 5878 5879 5879 5880 5880 5881 5881 5881 5881 5881
5881 5879 5877 5875 5873 5872 5872 5873 5874 5874 5874 5874 5874 5873 5873 5873 5873 5874 5874 5874 5874 5874 5874 5874 5874 5873 5873 5873 5873 5874 5875 5875 5876 5877 5877 5878 5878 5878 5879 5879 5879 5880 5880
5882 5881 5879 5877 5876 5874 5874 5875 5875 5875 5875 5875 5874 5873 5873 5873 5872 5872 5872 5872 5872 5872 5872 5872 5872 5871 5871 5871 5872 5872 5873 5873 5874 5875 5875 5876 5876 5877 5877 5878 5878 5878 5878
5884 5883 5881 5879 5878 5877 5876 5876 5876 5876 5876 5875 5874 5873 5872 5871 5871 5870 5870 5870 5871 5871 5870 5870 5870 5870 5870 5870 5870 5870 5870 5871 5872 5873 5874 5874 5874 5875 5875 5876 5876 5876 5877
5885 5884 5882 5881 5879 5878 5878 5877 5877 5877 5876 5876 5875 5874 5872 5870 5869 5869 5869 5869 5869 5869 5869 5868 5868 5868 5868 5867 5868 5868 5868 5869 5870 5871 5871 5872 5872 5873 5873 5874 5874 5875 5875
5887 5885 5883 5882 5881 5880 5879 5879 5878 5878 5877 5877 5876 5874 5873 5871 5869 5868 5868 5869 5869 5868 5867 5867 5866 5866 5866 5865 5865 5866 5866 5867 5868 5868 5869 5870 5870 5871 5871 5872 5872 5873 5873
5889 5887 5885 5884 5883 5882 5881 5881 5880 5879 5878 5877 5876 5875 5873 5872 5870 5869 5868 5868 5867 5867 5866 5865 5864 5863 5863 5863 5863 5863 5864 5865 5866 5866 5867 5868 5868 5869 5869 5870 5870 5871 5871
5890 5888 5887 5886 5885 5884 5883 5882 5881 5880 5879 5878 5877 5876 5875 5873 5872 5870 5869 5868 5867 5865 5864 5863 5861 5860 5860 5860 5860 5861 5862 5863 5864 5864 5865 5866 5866 5867 5867 5868 5868 5869 5869
5891 5890 5889 5888 5886 5885 5884 5883 5882 5881 5880 5879 5878 5876 5875 5874 5872 5871 5869 5868 5866 5864 5863 5861 5859 5858 5858 5857 5858 5859 5860 5861 5862 5862 5863 5864 5864 5865 5865 5865 5866 5866 5867
5892 5891 5890 5889 5888 5887 5886 5885 5884 5883 5881 5880 5878 5877 5875 5874 5873 5871 5869 5867 5866 5864 5862 5861 5859 5857 5855 5855 5856 5857 5858 5859 5860 5861 5862 5862 5862 5863 5864 5864 5864 5865 5865
5893 5892 5891 5890 5889 5888 5887 5886 5885 5884 5882 5880 5879 5877 5876 5874 5873 5871 5869 5867 5866 5864 5863 5861 5859 5857 5856 5855 5855 5856 5857 5858 5859 5859 5860 5861 5861 5861 5862 5862 5862 5863 5863
5894 5893 5892 5891 5890 5889 5888 5887 5885 5884 5882 5881 5879 5877 5876 5874 5873 5871 5870 5868 5866 5865 5863 5861 5859 5858 5857 5856 5856 5856 5857 5857 5858 5858 5858 5859 5859 5860 5860 5860 5860 5861 5861
5895 5894 5893 5892 5890 5889 5888 5887 5886 5884 5883 5881 5879 5878 5876 5875 5873 5871 5870 5868 5866 5865 5863 5862 5860 5859 5857 5857 5856 5856 5856 5856 5856 5857 5857 5857 5857 5858 5858 5858 5858 5858 5859
5896 5894 5893 5892 5890 5889 5888 5887 5885 5884 5883 5881 5879 5877 5876 5874 5872 5871 5869 5868 5866 5865 5863 5862 5860 5859 5858 5857 5856 5855 5855 5855 5855 5855 5855 5855 5855 5856 5856 5856 5856 5857 5857
5896 5895 5894 5892 5891 5889 5888 5887 5885 5884 5882 5881 5879 5877 5875 5874 5872 5870 5868 5867 5865 5864 5862 5861 5860 5859 5858 5856 5856 5855 5854 5855 5854 5853 5854 5854 5854 5854 5854 5855 5854 5855 5854
5896 5895 5894 5892 5890 5889 5888 5886 5885 5883 5882 5880 5879 5877 5875 5873 5871 5870 5867 5866 5864 5862 5861 5860 5859 5858 5857 5856 5855 5854 5853 5853 5853 5853 5853 5853 5853 5853 5853 5853 5852 5852 5852
5895 5894 5893 5891 5890 5888 5887 5885 5884 5883 5881 5879 5877 5876 5874 5872 5870 5868 5867 5865 5863 5861 5860 5858 5857 5856 5855 5854 5853 5853 5853 5852 5852 5851 5852 5852 5852 5852 5851 5851 5850 5850 5850
5894 5893 5892 5890 5889 5887 5886 5884 5883 5881 5880 5878 5876 5874 5872 5871 5869 5867 5865 5863 5861 5859 5858 5857 5855 5854 5854 5853 5852 5851 5851 5850 5850 5850 5850 5850 5850 5849 5849 5849 5848 5848 5847
5893 5892 5891 5889 5888 5886 5884 5883 5881 5880 5878 5876 5874 5872 5870 5868 5867 5865 5863 5861 5859 5857 5856 5854 5853 5852 5851 5850 5849 5848 5848 5848 5847 5847 5847 5847 5847 5847 5846 5846 5845 5845 5845